Miscellaneous Local Product
Issued by NWS Hastings, NE

Home | Current Version | Previous Version | Graphics & Text | Print | Product List | Glossary On
Versions: 1 2 3 4 5 6 7 8 9 10 11 12 13 14 15 16 17 18 19 20 21 22 23 24 25 26 27 28 29 30 31 32 33 34 35 36 37 38 39 40 41 42 43 44 45 46 47 48 49 50
599
AXUS43 KGID 281802
MISGRI

GID CWA HOURLY WEATHER ROUNDUP
NATIONAL WEATHER SERVICE HASTINGS NE
100 PM CDT SUN AUG 28 2016

NOTE: "FAIR" INDICATES FEW OR NO CLOUDS BELOW 12,000 FEET WITH NO
SIGNIFICANT WEATHER AND/OR OBSTRUCTIONS TO VISIBILITY.

...SOUTH CENTRAL NEBRASKA...

CITY           SKY/WX    TMP DP  RH WIND       PRES   REMARKS
GRAND ISLAND   PTSUNNY   86  64  47 S9        30.10S
HASTINGS       CLOUDY    88  60  38 SE12      30.11S
KEARNEY        CLOUDY    81  66  61 S7        30.09F
ORD            SUNNY     86  65  49 S9        30.06S
YORK           MOSUNNY   86  70  58 S10       30.10S HX  90
AURORA         MOSUNNY   87  64  46 S5        30.10S
LEXINGTON      CLOUDY    82  61  49 S6        30.10F
HOLDREGE       CLOUDY    79  65  61 SE5       30.10F
HEBRON         SUNNY     85  70  60 S9        30.09F HX  90

...NEBRASKA PANHANDLE...

CITY           SKY/WX    TMP DP  RH WIND       PRES   REMARKS
CHADRON        SUNNY     87  40  19 CALM      30.02F
ALLIANCE       SUNNY     85  54  34 SW9       30.08S
SCOTTSBLUFF    SUNNY     85  42  22 W5        30.09F
SIDNEY         SUNNY     81  55  40 CALM      30.14S

...WESTERN AND NORTH CENTRAL NEBRASKA...

CITY           SKY/WX    TMP DP  RH WIND       PRES   REMARKS
VALENTINE      NOT AVBL
AINSWORTH      SUNNY     88  64  44 S18       30.03F
ONEILL         MOSUNNY   91  59  35 S14G22    30.05S HX  90
BROKEN BOW     SUNNY     85  64  49 S9        30.08S
IMPERIAL       SUNNY     82  58  43 S12       30.10F
NORTH PLATTE   SUNNY     87  59  38 S10       30.08F
MCCOOK         CLOUDY    78  57  48 S7        30.10S

...EASTERN NEBRASKA...

CITY           SKY/WX    TMP DP  RH WIND       PRES   REMARKS
NORFOLK        MOSUNNY   85  68  56 S13       30.08S
SO SIOUX CITY  MOSUNNY   86  74  67 SE12      30.08F HX  94
TEKAMAH        MOSUNNY   84  74  71 SE7       30.09S HX  91
COLUMBUS         N/A     82  66  57 S10       30.09S
ALBION         CLOUDY    84  67  58 S12       30.09S
OMAHA EPPLEY   PTSUNNY   86  71  60 S9        30.10S HX  91
OFFUTT AFB     MOSUNNY   85  74  70 VRB7      30.10S HX  93
MILLARD        MOSUNNY   86  75  68 SE7       30.10S HX  94
LINCOLN        MOSUNNY   90  71  53 S14       30.09F HX  96
NEBRASKA CITY  MOSUNNY   85  72  63 SE5       30.11S HX  91
BEATRICE       MOSUNNY   87  72  59 S8        30.10S HX  94
FALLS CITY     SUNNY     88  71  57 S8        30.10F HX  94

...NORTHERN KANSAS...

CITY           SKY/WX    TMP DP  RH WIND       PRES   REMARKS
GOODLAND       MOSUNNY   80  54  40 S10       30.13S
HILL CITY      MOSUNNY   77  64  64 SE5       30.12R
NORTON         PTCLDY    79  54  41 SE3       30.10S
SMITH CENTER   SUNNY     86  64  48 SE9       30.10S
BELOIT         SUNNY     82  66  57 SE7       30.07F
HAYS           CLOUDY    82  61  47 SW10      30.11S
RUSSELL        MOSUNNY   84  67  56 S10       30.10R
CONCORDIA      SUNNY     87  68  52 S9        30.09F HX  90
SALINA         SUNNY     89  67  47 SE10      30.09F HX  92
TOPEKA         MOSUNNY   88  73  61 SE9       30.11S HX  95



USA.gov is the U.S. government's official web portal to all federal, state and local government web resources and services.